Location: St Paul
(33.9360°N, 83.4200°W)
Time: 05:07:03
(UTC-05:00)

Cosmos 1980 Rocket - Pass Details

Date: 06 October 2017
Orbit: 827 x 852 km, 71.0° (Epoch: 14 December)

Event Time Altitude Azimuth Distance (km) Brightness Sun altitude
Rises 20:27:38 0° 343° (NNW) 3,401 5.6 -16.7°
Reaches altitude 10° 20:30:07 10° 347° (NNW) 2,467 4.8 -17.3°
Maximum altitude 20:35:43 59° 67° (ENE) 970 2.2 -18.4°
Enters shadow 20:39:11 23° 140° (SE) 1,716 3.4 -19.1°
